CPA716 WSSS-VHHH

Flight info

Callsign CPA716
Flight time 1h 57m
Altitude 37000
Route VMR9B VMR M771 DUDIS/K0898F370 M771 DOSUT/N0484F370 M771 DULOP Q1 CARSO V551 BETTY
Aircraft A346/H-SDE2E3FGHIJ3J4J5M1RWXY/LB1D1

Departure

Time 2026-05-07 13:10
Airport Singapore Changi Airport (WSSS)

Arrival

Time 2026-05-07 15:08
Airport Hong Kong International Airport (VHHH)
Time Latitude Longitude Altitude Speed Heading
2026-05-07 12:19 1.36107 103.99286 32 ft 0 kts 292°
2026-05-07 13:01 1.36099 103.99304 32 ft 4 kts 294°
2026-05-07 13:01 1.36089 103.99324 32 ft 4 kts 308°
2026-05-07 13:01 1.36074 103.99336 29 ft 4 kts 343°
2026-05-07 13:02 1.36055 103.99337 30 ft 4 kts 17°
2026-05-07 13:02 1.36030 103.99327 31 ft 4 kts 24°
2026-05-07 13:02 1.36017 103.99321 31 ft 1 kts 22°
2026-05-07 13:02 1.36016 103.99320 31 ft 0 kts 22°
2026-05-07 13:06 1.36019 103.99322 31 ft 2 kts 22°
2026-05-07 13:06 1.36039 103.99330 31 ft 5 kts 22°
2026-05-07 13:07 1.36079 103.99347 31 ft 8 kts 22°
2026-05-07 13:07 1.36139 103.99372 33 ft 11 kts 22°
2026-05-07 13:07 1.36217 103.99405 33 ft 13 kts 22°
2026-05-07 13:07 1.36296 103.99465 33 ft 15 kts 52°
2026-05-07 13:08 1.36328 103.99559 33 ft 16 kts 108°
2026-05-07 13:08 1.36278 103.99670 33 ft 19 kts 113°
2026-05-07 13:08 1.36226 103.99795 34 ft 20 kts 112°
2026-05-07 13:08 1.36185 103.99880 35 ft 9 kts 147°
2026-05-07 13:09 1.36124 103.99871 35 ft 0 kts 204°
2026-05-07 13:09 1.36121 103.99870 35 ft 2 kts 204°
2026-05-07 13:09 1.35950 103.99796 35 ft 63 kts 202°
2026-05-07 13:09 1.35320 103.99531 38 ft 130 kts 202°
2026-05-07 13:10 1.34299 103.99102 54 ft 184 kts 202°
2026-05-07 13:10 1.33093 103.98597 721 ft 187 kts 201°
2026-05-07 13:10 1.31885 103.98102 1542 ft 189 kts 201°
2026-05-07 13:10 1.30669 103.97674 2311 ft 189 kts 192°
2026-05-07 13:11 1.29410 103.97607 2894 ft 191 kts 168°
2026-05-07 13:11 1.28213 103.98140 3364 ft 197 kts 141°
2026-05-07 13:11 1.27383 103.99172 3840 ft 203 kts 115°
2026-05-07 13:11 1.27084 104.00494 4384 ft 207 kts 90°
2026-05-07 13:12 1.27419 104.01895 4955 ft 212 kts 63°
2026-05-07 13:12 1.28424 104.03008 5393 ft 225 kts 30°
2026-05-07 13:12 1.29964 104.03371 5815 ft 236 kts 355°
2026-05-07 13:12 1.31607 104.02999 6242 ft 250 kts 347°
2026-05-07 13:13 1.33384 104.02685 6538 ft 269 kts 353°
2026-05-07 13:13 1.35315 104.02506 6947 ft 286 kts 356°
2026-05-07 13:13 1.37325 104.02398 7642 ft 290 kts 358°
2026-05-07 13:13 1.39349 104.02314 8441 ft 292 kts 358°
2026-05-07 13:14 1.41359 104.02121 9253 ft 295 kts 351°
2026-05-07 13:14 1.43372 104.01659 10005 ft 299 kts 345°
2026-05-07 13:14 1.45377 104.01032 10596 ft 307 kts 343°
2026-05-07 13:14 1.47461 104.00351 10948 ft 324 kts 343°
2026-05-07 13:15 1.49658 103.99630 11242 ft 341 kts 343°
2026-05-07 13:15 1.51979 103.98871 11538 ft 358 kts 343°
2026-05-07 13:15 1.54407 103.98082 11825 ft 375 kts 343°
2026-05-07 13:15 1.56945 103.97258 12111 ft 390 kts 343°
2026-05-07 13:16 1.59553 103.96412 12642 ft 397 kts 343°
2026-05-07 13:16 1.62195 103.95555 13323 ft 400 kts 343°
2026-05-07 13:16 1.63954 103.94984 13750 ft 402 kts 343°
2026-05-07 13:16 1.67511 103.93832 14211 ft 406 kts 343°
2026-05-07 13:17 1.70204 103.92960 14451 ft 407 kts 344°
2026-05-07 13:17 1.71997 103.92383 14602 ft 408 kts 345°
2026-05-07 13:17 1.74744 103.91653 14796 ft 408 kts 349°
2026-05-07 13:17 1.77535 103.91155 14816 ft 407 kts 354°
2026-05-07 13:18 1.80355 103.90889 14824 ft 406 kts 358°
2026-05-07 13:18 1.83179 103.90707 14826 ft 408 kts 358°
2026-05-07 13:18 1.86037 103.90537 15125 ft 414 kts 358°
2026-05-07 13:18 1.88918 103.90362 15806 ft 414 kts 358°
2026-05-07 13:19 1.91801 103.90184 16403 ft 416 kts 358°
2026-05-07 13:19 1.94703 103.90003 16944 ft 420 kts 358°
2026-05-07 13:19 1.97633 103.89819 17466 ft 424 kts 358°
2026-05-07 13:19 2.00551 103.89634 17998 ft 427 kts 359°
2026-05-07 13:20 2.03534 103.89445 18465 ft 431 kts 359°
2026-05-07 13:20 2.06496 103.89258 18905 ft 434 kts 359°
2026-05-07 13:20 2.09522 103.89066 19361 ft 437 kts 359°
2026-05-07 13:20 2.12567 103.88872 19819 ft 439 kts 359°
2026-05-07 13:21 2.15626 103.88677 20270 ft 442 kts 358°
2026-05-07 13:21 2.18702 103.88481 20711 ft 445 kts 358°
2026-05-07 13:21 2.21813 103.88283 21141 ft 448 kts 358°
2026-05-07 13:21 2.24928 103.88084 21582 ft 450 kts 358°
2026-05-07 13:22 2.28070 103.87884 21988 ft 453 kts 358°
2026-05-07 13:22 2.31231 103.87682 22393 ft 456 kts 358°
2026-05-07 13:22 2.34410 103.87496 22790 ft 458 kts
2026-05-07 13:22 2.37579 103.87752 23153 ft 457 kts 13°
2026-05-07 13:23 2.40625 103.88647 23524 ft 456 kts 24°
2026-05-07 13:23 2.43430 103.90112 23831 ft 456 kts 33°
2026-05-07 13:23 2.46083 103.91800 24149 ft 458 kts 34°
2026-05-07 13:23 2.48765 103.93543 24445 ft 461 kts 34°
2026-05-07 13:24 2.51465 103.95299 24745 ft 464 kts 34°
2026-05-07 13:24 2.54185 103.97063 25054 ft 466 kts 34°
2026-05-07 13:24 2.56921 103.98832 25359 ft 469 kts 34°
2026-05-07 13:24 2.59674 104.00609 25662 ft 471 kts 34°
2026-05-07 13:25 2.64904 104.03978 26208 ft 477 kts 34°
2026-05-07 13:25 2.70508 104.07585 26800 ft 482 kts 34°
2026-05-07 13:25 2.76188 104.11240 27377 ft 487 kts 34°
2026-05-07 13:25 2.81915 104.14925 27947 ft 491 kts 34°
2026-05-07 13:26 2.87680 104.18635 28659 ft 493 kts 33°
2026-05-07 13:26 2.93448 104.22347 29566 ft 490 kts 34°
2026-05-07 13:26 2.99184 104.26033 30374 ft 487 kts 34°
2026-05-07 13:26 3.04803 104.29650 31099 ft 486 kts 34°
2026-05-07 13:27 3.10510 104.33327 31854 ft 484 kts 34°
2026-05-07 13:27 3.16167 104.36969 32608 ft 483 kts 34°
2026-05-07 13:27 3.21817 104.40606 33373 ft 481 kts 34°
2026-05-07 13:27 3.27456 104.44236 34084 ft 480 kts 34°
2026-05-07 13:28 3.33068 104.47852 34735 ft 478 kts 34°
2026-05-07 13:28 3.38653 104.51452 35335 ft 479 kts 34°
2026-05-07 13:28 3.44287 104.55081 35837 ft 481 kts 34°
2026-05-07 13:28 3.49932 104.58718 36340 ft 482 kts 33°
2026-05-07 13:29 3.55520 104.62320 36816 ft 484 kts 33°
2026-05-07 13:29 3.61202 104.65982 36822 ft 485 kts 33°
2026-05-07 13:29 3.72573 104.73313 36823 ft 485 kts 33°
2026-05-07 13:30 3.83951 104.80651 36830 ft 485 kts 33°
2026-05-07 13:30 3.95304 104.87977 36828 ft 485 kts 33°
2026-05-07 13:31 4.06601 104.95270 36826 ft 486 kts 33°
2026-05-07 13:31 4.17982 105.02617 36826 ft 486 kts 33°
2026-05-07 13:32 4.29378 105.09977 36826 ft 486 kts 33°
2026-05-07 13:32 4.40739 105.17318 36826 ft 486 kts 33°
2026-05-07 13:33 4.52113 105.24669 36826 ft 486 kts 33°
2026-05-07 13:33 4.63463 105.32008 36822 ft 485 kts 33°
2026-05-07 13:34 4.80532 105.43051 36828 ft 484 kts 34°
2026-05-07 13:35 4.91844 105.50373 36824 ft 483 kts 34°
2026-05-07 13:35 5.03132 105.57683 36823 ft 483 kts 34°
2026-05-07 13:36 5.14442 105.65007 36825 ft 483 kts 33°
2026-05-07 13:36 5.25691 105.72296 36825 ft 484 kts 33°
2026-05-07 13:37 5.37042 105.79654 36824 ft 484 kts 33°
2026-05-07 13:37 5.48366 105.86999 36824 ft 484 kts 33°
2026-05-07 13:38 5.59689 105.94345 36826 ft 485 kts 34°
2026-05-07 13:38 5.70941 106.01652 36830 ft 485 kts 34°
2026-05-07 13:39 5.82302 106.09032 36829 ft 486 kts 34°
2026-05-07 13:39 5.93649 106.16407 36829 ft 483 kts 33°
2026-05-07 13:40 6.04949 106.23753 36827 ft 483 kts 33°
2026-05-07 13:40 6.16168 106.31051 36827 ft 483 kts 33°
2026-05-07 13:41 6.27432 106.38385 36829 ft 483 kts 33°
2026-05-07 13:41 6.38734 106.45743 36829 ft 483 kts 33°
2026-05-07 13:42 6.50038 106.53108 36829 ft 483 kts 33°
2026-05-07 13:42 6.61339 106.60478 36829 ft 483 kts 33°
2026-05-07 13:43 6.72550 106.67787 36824 ft 483 kts 33°
2026-05-07 13:43 6.83868 106.75175 36823 ft 484 kts 33°
2026-05-07 13:44 6.95180 106.82564 36822 ft 484 kts 33°
2026-05-07 13:44 7.06501 106.89958 36826 ft 484 kts 33°
2026-05-07 13:45 7.17816 106.97357 36827 ft 484 kts 33°
2026-05-07 13:45 7.29129 107.04759 36822 ft 485 kts 33°
2026-05-07 13:46 7.40463 107.12179 36824 ft 485 kts 32°
2026-05-07 13:46 7.51722 107.19553 36824 ft 485 kts 32°
2026-05-07 13:47 7.63038 107.26969 36824 ft 485 kts 32°
2026-05-07 13:47 7.74374 107.34403 36825 ft 485 kts 32°
2026-05-07 13:48 7.85682 107.41824 36828 ft 483 kts 32°
2026-05-07 13:48 7.96943 107.49218 36828 ft 482 kts 32°
2026-05-07 13:49 8.08224 107.56632 36826 ft 485 kts 32°
2026-05-07 13:49 8.19539 107.64072 36827 ft 485 kts 32°
2026-05-07 13:50 8.30862 107.71522 36827 ft 485 kts 32°
2026-05-07 13:50 8.42119 107.78939 36827 ft 485 kts 32°
2026-05-07 13:51 8.53426 107.86386 36827 ft 485 kts 32°
2026-05-07 13:51 8.64694 107.93816 36827 ft 485 kts 32°
2026-05-07 13:52 8.75992 108.01272 36830 ft 485 kts 32°
2026-05-07 13:52 8.87318 108.08750 36829 ft 485 kts 32°
2026-05-07 13:53 8.98631 108.16227 36830 ft 485 kts 32°
2026-05-07 13:53 9.09966 108.23723 36830 ft 487 kts 31°
2026-05-07 13:54 9.21256 108.31195 36836 ft 487 kts 32°
2026-05-07 13:54 9.32633 108.38731 36835 ft 487 kts 32°
2026-05-07 13:55 9.44024 108.46282 36835 ft 488 kts 31°
2026-05-07 13:55 9.55711 108.54035 37416 ft 490 kts 32°
2026-05-07 13:55 9.61471 108.57860 38279 ft 485 kts 32°
2026-05-07 13:56 9.67111 108.61606 38799 ft 485 kts 32°
2026-05-07 13:56 9.78762 108.69348 38838 ft 483 kts 32°
2026-05-07 13:57 9.90137 108.76914 38837 ft 483 kts 32°
2026-05-07 13:57 10.01599 108.84543 38839 ft 485 kts 32°
2026-05-07 13:58 10.12831 108.92026 38843 ft 481 kts 32°
2026-05-07 13:58 10.24035 108.99496 38843 ft 481 kts 32°
2026-05-07 13:59 10.35196 109.06945 38842 ft 481 kts 32°
2026-05-07 13:59 10.46333 109.14388 38843 ft 477 kts 31°
2026-05-07 14:00 10.57491 109.21845 38850 ft 478 kts 31°
2026-05-07 14:00 10.68535 109.29234 38851 ft 478 kts 31°
2026-05-07 14:01 10.79640 109.36672 38851 ft 477 kts 31°
2026-05-07 14:01 10.90743 109.44114 38851 ft 477 kts 31°
2026-05-07 14:02 11.01810 109.51538 38850 ft 479 kts 31°
2026-05-07 14:02 11.12962 109.59034 38853 ft 480 kts 31°
2026-05-07 14:03 11.24113 109.66533 38856 ft 480 kts 31°
2026-05-07 14:03 11.35273 109.74043 38856 ft 479 kts 31°
2026-05-07 14:04 11.44528 109.80275 38856 ft 478 kts 32°
2026-05-07 14:04 11.57482 109.89010 38859 ft 480 kts 32°
2026-05-07 14:05 11.68694 109.96584 38864 ft 480 kts 32°
2026-05-07 14:05 11.77931 110.02822 38859 ft 478 kts 32°
2026-05-07 14:06 11.89081 110.10364 38863 ft 478 kts 32°
2026-05-07 14:06 12.01971 110.19087 38865 ft 478 kts 32°
2026-05-07 14:07 12.11228 110.25355 38862 ft 475 kts 33°
2026-05-07 14:07 12.22261 110.32838 38864 ft 475 kts 32°
2026-05-07 14:08 12.33267 110.40309 38863 ft 475 kts 32°
2026-05-07 14:08 12.44204 110.47738 38865 ft 474 kts 32°
2026-05-07 14:09 12.55226 110.55235 38870 ft 475 kts 32°
2026-05-07 14:09 12.66239 110.62733 38874 ft 474 kts 33°
2026-05-07 14:10 12.77232 110.70218 38873 ft 473 kts 32°
2026-05-07 14:10 12.88227 110.77712 38873 ft 474 kts 33°
2026-05-07 14:11 12.99148 110.85169 38874 ft 474 kts 33°
2026-05-07 14:11 13.10123 110.92672 38872 ft 474 kts 33°
2026-05-07 14:12 13.21122 111.00198 38876 ft 474 kts 33°
2026-05-07 14:12 13.32025 111.07663 38876 ft 474 kts 32°
2026-05-07 14:13 13.43016 111.15200 38881 ft 474 kts 32°
2026-05-07 14:13 13.53978 111.22725 38878 ft 473 kts 33°
2026-05-07 14:14 13.64956 111.30273 38882 ft 474 kts 32°
2026-05-07 14:14 13.75860 111.37778 38881 ft 474 kts 32°
2026-05-07 14:15 13.86837 111.45341 38879 ft 474 kts 32°
2026-05-07 14:15 13.97793 111.52900 38885 ft 474 kts 32°
2026-05-07 14:16 14.08806 111.60505 38880 ft 475 kts 32°
2026-05-07 14:16 14.19705 111.68042 38887 ft 475 kts 32°
2026-05-07 14:17 14.30696 111.75651 38889 ft 475 kts 32°
2026-05-07 14:17 14.41672 111.83257 38885 ft 473 kts 33°
2026-05-07 14:18 14.52604 111.90845 38885 ft 473 kts 33°
2026-05-07 14:18 14.63681 111.98543 38885 ft 474 kts 32°
2026-05-07 14:19 14.74562 112.06111 38889 ft 474 kts 32°
2026-05-07 14:19 14.85519 112.13743 38889 ft 474 kts 32°
2026-05-07 14:20 14.96478 112.21386 38889 ft 474 kts 32°
2026-05-07 14:20 15.07411 112.29020 38891 ft 474 kts 32°
2026-05-07 14:21 15.18361 112.36676 38897 ft 474 kts 32°
2026-05-07 14:21 15.29325 112.44351 38892 ft 475 kts 32°
2026-05-07 14:22 15.40206 112.51978 38891 ft 474 kts 32°
2026-05-07 14:22 15.51175 112.59677 38892 ft 474 kts 32°
2026-05-07 14:23 15.62150 112.67389 38893 ft 474 kts 32°
2026-05-07 14:23 15.73003 112.75026 38895 ft 474 kts 32°
2026-05-07 14:24 15.84056 112.82815 38896 ft 473 kts 32°
2026-05-07 14:24 15.94961 112.90508 38898 ft 473 kts 32°
2026-05-07 14:25 16.05892 112.98231 38898 ft 473 kts 32°
2026-05-07 14:25 16.16808 113.05954 38900 ft 474 kts 32°
2026-05-07 14:26 16.27733 113.13693 38901 ft 473 kts 32°
2026-05-07 14:26 16.38545 113.21363 38898 ft 473 kts 32°
2026-05-07 14:27 16.49436 113.29099 38898 ft 473 kts 32°
2026-05-07 14:27 16.60316 113.36838 38900 ft 473 kts 32°
2026-05-07 14:28 16.71214 113.44602 38908 ft 473 kts 32°
2026-05-07 14:28 16.82102 113.52369 38903 ft 474 kts 32°
2026-05-07 14:29 16.92982 113.60141 38903 ft 474 kts 32°
2026-05-07 14:29 17.03890 113.67945 38903 ft 475 kts 32°
2026-05-07 14:30 17.14798 113.75757 38905 ft 475 kts 32°
2026-05-07 14:30 17.25719 113.83592 38906 ft 475 kts 32°
2026-05-07 14:31 17.36629 113.91431 38907 ft 475 kts 32°
2026-05-07 14:31 17.47824 113.98705 38900 ft 471 kts 18°
2026-05-07 14:31 17.54201 114.00178 38907 ft 469 kts
2026-05-07 14:32 17.60657 114.01205 38907 ft 470 kts
2026-05-07 14:32 17.73632 114.03339 38904 ft 470 kts
2026-05-07 14:33 17.86563 114.05516 38907 ft 470 kts
2026-05-07 14:33 17.99514 114.07703 38912 ft 470 kts
2026-05-07 14:34 18.12433 114.09887 38910 ft 470 kts
2026-05-07 14:34 18.25361 114.12077 38917 ft 470 kts
2026-05-07 14:35 18.38304 114.14200 38913 ft 470 kts
2026-05-07 14:35 18.51242 114.16304 38922 ft 470 kts
2026-05-07 14:36 18.64164 114.18437 38924 ft 470 kts
2026-05-07 14:36 18.77073 114.20573 38923 ft 469 kts
2026-05-07 14:37 18.89897 114.22698 38924 ft 468 kts
2026-05-07 14:37 19.09304 114.25917 38919 ft 468 kts
2026-05-07 14:38 19.22195 114.28070 38924 ft 468 kts
2026-05-07 14:38 19.34996 114.30204 38925 ft 468 kts
2026-05-07 14:39 19.47864 114.32350 38929 ft 467 kts
2026-05-07 14:39 19.60726 114.34498 38927 ft 467 kts
2026-05-07 14:40 19.73582 114.36650 38936 ft 467 kts
2026-05-07 14:40 19.86433 114.38814 38932 ft 467 kts
2026-05-07 14:41 19.99260 114.40970 38932 ft 466 kts
2026-05-07 14:41 20.12002 114.43116 38408 ft 463 kts
2026-05-07 14:42 20.18329 114.44181 37665 ft 459 kts
2026-05-07 14:42 20.24662 114.45246 36521 ft 461 kts
2026-05-07 14:42 20.31036 114.46320 35255 ft 464 kts
2026-05-07 14:42 20.37363 114.47388 34007 ft 469 kts
2026-05-07 14:43 20.43858 114.48486 32602 ft 474 kts
2026-05-07 14:43 20.50407 114.49594 31255 ft 478 kts
2026-05-07 14:43 20.57034 114.50715 29853 ft 482 kts
2026-05-07 14:43 20.63701 114.51843 28277 ft 485 kts
2026-05-07 14:44 20.70382 114.52953 27117 ft 484 kts
2026-05-07 14:44 20.76993 114.54049 26090 ft 477 kts
2026-05-07 14:44 20.83520 114.55049 25084 ft 467 kts
2026-05-07 14:44 20.87750 114.55367 24482 ft 459 kts 360°
2026-05-07 14:45 20.90933 114.55428 24061 ft 454 kts 358°
2026-05-07 14:45 20.94020 114.55455 23613 ft 450 kts 358°
2026-05-07 14:45 20.97018 114.55475 23120 ft 446 kts 358°
2026-05-07 14:45 21.00016 114.55495 22643 ft 442 kts 358°
2026-05-07 14:46 21.03008 114.55518 22191 ft 437 kts 358°
2026-05-07 14:46 21.05969 114.55542 21751 ft 433 kts 358°
2026-05-07 14:46 21.08890 114.55567 21315 ft 429 kts 358°
2026-05-07 14:46 21.11812 114.55592 20878 ft 425 kts 358°
2026-05-07 14:47 21.14671 114.55618 20448 ft 422 kts 358°
2026-05-07 14:47 21.17514 114.55643 20025 ft 419 kts 358°
2026-05-07 14:47 21.20343 114.55669 19596 ft 416 kts 358°
2026-05-07 14:47 21.23160 114.55695 19169 ft 413 kts 358°
2026-05-07 14:48 21.25935 114.55721 18751 ft 411 kts 358°
2026-05-07 14:48 21.28734 114.55746 18315 ft 409 kts 358°
2026-05-07 14:48 21.31533 114.55770 17838 ft 407 kts 358°
2026-05-07 14:48 21.34313 114.55793 17385 ft 405 kts 358°
2026-05-07 14:49 21.37092 114.55817 16947 ft 402 kts 358°
2026-05-07 14:49 21.39863 114.55842 16503 ft 399 kts 358°
2026-05-07 14:49 21.42603 114.55867 16074 ft 397 kts 358°
2026-05-07 14:49 21.45301 114.55888 15648 ft 394 kts 357°
2026-05-07 14:50 21.48012 114.55695 15212 ft 391 kts 351°
2026-05-07 14:50 21.50662 114.55176 14772 ft 387 kts 345°
2026-05-07 14:50 21.53224 114.54381 14358 ft 385 kts 340°
2026-05-07 14:50 21.55761 114.53492 13924 ft 383 kts 340°
2026-05-07 14:51 21.58293 114.52588 13459 ft 381 kts 339°
2026-05-07 14:51 21.60654 114.51427 12995 ft 377 kts 328°
2026-05-07 14:51 21.62785 114.49790 12704 ft 382 kts 317°
2026-05-07 14:51 21.64676 114.47764 12740 ft 387 kts 312°
2026-05-07 14:52 21.66507 114.45645 12750 ft 388 kts 311°
2026-05-07 14:52 21.68332 114.43509 12769 ft 388 kts 311°
2026-05-07 14:52 21.70159 114.41375 12779 ft 388 kts 311°
2026-05-07 14:52 21.71994 114.39239 12783 ft 388 kts 311°
2026-05-07 14:53 21.73206 114.37832 12788 ft 388 kts 311°
2026-05-07 14:53 21.75042 114.35703 12517 ft 388 kts 311°
2026-05-07 14:53 21.76861 114.33594 12012 ft 386 kts 311°
2026-05-07 14:53 21.79236 114.30843 11407 ft 380 kts 311°
2026-05-07 14:54 21.80406 114.29487 11116 ft 377 kts 311°
2026-05-07 14:54 21.82162 114.27451 10833 ft 367 kts 311°
2026-05-07 14:54 21.83846 114.25500 10723 ft 353 kts 311°
2026-05-07 14:54 21.85484 114.23601 10577 ft 340 kts 311°
2026-05-07 14:55 21.87066 114.21766 10476 ft 327 kts 311°
2026-05-07 14:55 21.88548 114.19966 10348 ft 314 kts 307°
2026-05-07 14:55 21.89813 114.18072 10242 ft 301 kts 301°
2026-05-07 14:55 21.90842 114.16185 10131 ft 290 kts 298°
2026-05-07 14:56 21.91806 114.14320 10042 ft 279 kts 297°
2026-05-07 14:56 21.92736 114.12506 9823 ft 276 kts 297°
2026-05-07 14:56 21.93667 114.10692 9482 ft 276 kts 297°
2026-05-07 14:56 21.94600 114.08877 9160 ft 275 kts 297°
2026-05-07 14:57 21.95526 114.07078 8857 ft 274 kts 297°
2026-05-07 14:57 21.96450 114.05284 8548 ft 272 kts 298°
2026-05-07 14:57 21.97369 114.03502 8252 ft 271 kts 298°
2026-05-07 14:57 21.98286 114.01725 7965 ft 270 kts 298°
2026-05-07 14:58 21.99196 113.99961 7684 ft 269 kts 298°
2026-05-07 14:58 22.00088 113.98231 7388 ft 268 kts 298°
2026-05-07 14:58 22.00995 113.96473 7101 ft 267 kts 298°
2026-05-07 14:58 22.01895 113.94726 6813 ft 266 kts 298°
2026-05-07 14:59 22.02794 113.92980 6519 ft 266 kts 298°
2026-05-07 14:59 22.03693 113.91233 6225 ft 266 kts 298°
2026-05-07 14:59 22.04592 113.89487 5928 ft 265 kts 298°
2026-05-07 14:59 22.05492 113.87738 5640 ft 265 kts 298°
2026-05-07 15:00 22.06385 113.86003 5346 ft 264 kts 298°
2026-05-07 15:00 22.07274 113.84275 5062 ft 263 kts 298°
2026-05-07 15:00 22.08162 113.82547 4782 ft 263 kts 298°
2026-05-07 15:00 22.09050 113.80819 4474 ft 263 kts 298°
2026-05-07 15:01 22.09938 113.79095 4195 ft 262 kts 300°
2026-05-07 15:01 22.11087 113.77576 3876 ft 262 kts 320°
2026-05-07 15:01 22.12642 113.76566 3618 ft 259 kts 334°
2026-05-07 15:01 22.14278 113.75759 3334 ft 257 kts 335°
2026-05-07 15:02 22.15891 113.74984 2984 ft 248 kts 335°
2026-05-07 15:02 22.17390 113.74258 3003 ft 230 kts 335°
2026-05-07 15:02 22.18807 113.73561 3010 ft 217 kts 334°
2026-05-07 15:02 22.20122 113.72909 3037 ft 199 kts 334°
2026-05-07 15:03 22.21351 113.72297 2979 ft 191 kts 334°
2026-05-07 15:03 22.22568 113.71708 2978 ft 192 kts 342°
2026-05-07 15:03 22.23869 113.71759 2966 ft 192 kts 26°
2026-05-07 15:03 22.24939 113.72615 3009 ft 192 kts 41°
2026-05-07 15:04 22.25941 113.73576 2905 ft 192 kts 42°
2026-05-07 15:04 22.26935 113.74537 2669 ft 190 kts 42°
2026-05-07 15:04 22.27828 113.75541 2414 ft 179 kts 56°
2026-05-07 15:04 22.28406 113.76683 2156 ft 168 kts 67°
2026-05-07 15:05 22.28827 113.77807 1947 ft 161 kts 71°
2026-05-07 15:05 22.29198 113.78942 1761 ft 159 kts 72°
2026-05-07 15:05 22.29542 113.80076 1573 ft 158 kts 73°
2026-05-07 15:05 22.29896 113.81196 1373 ft 157 kts 72°
2026-05-07 15:06 22.30253 113.82305 1177 ft 156 kts 72°
2026-05-07 15:06 22.30620 113.83405 996 ft 155 kts 72°
2026-05-07 15:06 22.30981 113.84503 803 ft 153 kts 72°
2026-05-07 15:06 22.31319 113.85588 629 ft 151 kts 72°
2026-05-07 15:07 22.31654 113.86661 399 ft 148 kts 71°
2026-05-07 15:07 22.31987 113.87692 212 ft 144 kts 71°
2026-05-07 15:07 22.32310 113.88703 40 ft 136 kts 71°
2026-05-07 15:07 22.32559 113.89475 40 ft 79 kts 71°
2026-05-07 15:08 22.32684 113.89864 41 ft 33 kts 71°
2026-05-07 15:08 22.32692 113.90106 41 ft 32 kts 100°
2026-05-07 15:08 22.32662 113.90346 41 ft 31 kts 83°
2026-05-07 15:08 22.32731 113.90568 40 ft 31 kts 70°
2026-05-07 15:09 22.32803 113.90789 41 ft 31 kts 71°
2026-05-07 15:09 22.32874 113.91014 41 ft 32 kts 71°
2026-05-07 15:09 22.32947 113.91244 41 ft 33 kts 71°
2026-05-07 15:09 22.33022 113.91478 41 ft 33 kts 71°
2026-05-07 15:10 22.33097 113.91716 41 ft 34 kts 71°
2026-05-07 15:10 22.33164 113.91916 41 ft 23 kts 70°
2026-05-07 15:10 22.33174 113.92025 41 ft 14 kts 132°
2026-05-07 15:10 22.33072 113.92070 41 ft 18 kts 160°
2026-05-07 15:11 22.32942 113.92119 41 ft 21 kts 161°
2026-05-07 15:11 22.32791 113.92174 41 ft 24 kts 161°
2026-05-07 15:11 22.32622 113.92234 41 ft 27 kts 162°
2026-05-07 15:11 22.32439 113.92302 41 ft 29 kts 161°
2026-05-07 15:12 22.32255 113.92371 41 ft 21 kts 161°
2026-05-07 15:12 22.32221 113.92454 41 ft 15 kts 69°
2026-05-07 15:12 22.32261 113.92575 41 ft 19 kts 71°
2026-05-07 15:12 22.32240 113.92674 41 ft 17 kts 157°
2026-05-07 15:13 22.32118 113.92714 42 ft 19 kts 165°
2026-05-07 15:13 22.31983 113.92762 43 ft 22 kts 161°
2026-05-07 15:13 22.31835 113.92822 41 ft 14 kts 162°
2026-05-07 15:13 22.31770 113.92764 41 ft 15 kts 244°
2026-05-07 15:14 22.31731 113.92644 41 ft 19 kts 250°
2026-05-07 15:14 22.31683 113.92499 41 ft 22 kts 250°
2026-05-07 15:14 22.31628 113.92333 41 ft 25 kts 251°
2026-05-07 15:14 22.31571 113.92147 41 ft 26 kts 252°
2026-05-07 15:15 22.31513 113.92060 41 ft 13 kts 175°
2026-05-07 15:15 22.31413 113.92100 41 ft 17 kts 160°
2026-05-07 15:15 22.31286 113.92149 41 ft 21 kts 161°
2026-05-07 15:15 22.31141 113.92202 41 ft 24 kts 161°
2026-05-07 15:16 22.30974 113.92264 41 ft 26 kts 161°
2026-05-07 15:16 22.30807 113.92327 40 ft 19 kts 161°
2026-05-07 15:16 22.30736 113.92383 40 ft 12 kts 98°
2026-05-07 15:16 22.30763 113.92482 40 ft 16 kts 70°
2026-05-07 15:17 22.30804 113.92608 40 ft 19 kts 71°
2026-05-07 15:17 22.30844 113.92714 40 ft 7 kts 43°
2026-05-07 15:17 22.30871 113.92733 40 ft 0 kts 28°
2026-05-07 15:18 22.30882 113.92740 40 ft 3 kts 28°
2026-05-07 15:18 22.30913 113.92758 40 ft 7 kts 28°
2026-05-07 15:19 22.30963 113.92787 40 ft 9 kts 28°
2026-05-07 15:19 22.31007 113.92784 40 ft 8 kts 309°
2026-05-07 15:19 22.31032 113.92739 40 ft 4 kts 297°
2026-05-07 15:19 22.31042 113.92719 40 ft 3 kts 296°
2026-05-07 15:20 22.31044 113.92714 40 ft 0 kts 296°